User: anonymous   Login
Location: Phoenix
(33.4480°N, 112.0730°W)
Time: 11:33:43
(UTC-07:00)
Language:

Hubble Space Telescope - Orbit

View from above orbital plane
View from above orbital plane
View from above satellite
View from above satellite

Ground track
Ground track

The orbit data is extracted from the following two-line orbital elements,

1 20580U 90037B   15117.19420944  .00002365  00000-0  14151-3 0  9993
2 20580 028.4693 130.3495 0003128 052.6829 034.8215 15.07265483172105
Epoch (UTC): 27 April 2015 04:39:39
Eccentricity: 0.0003128
inclination: 28.4693°
perigee height: 542 km
apogee height: 547 km
right ascension of ascending node: 130.3495°
argument of perigee: 52.6829°
revolutions per day: 15.07265483
mean anomaly at epoch: 34.8215°
orbit number at epoch: 17210

The dashed part of the orbit path shows where the satellite is in the earth's shadow,  

DLR